Date String (YYYY-MM-DD hh:mm:ss) UTC,Instrument flags,absolute air pressure of the measurement (hPa),sample flow rate (lpm),inlet stack bypass flow (lpm),air temperature of the measurement (°C),ambient temperature measured by the external sensor (°C),aerosol sample conditioner tube jacket temperature (°C),OPC LED temperature (°C),internal box temperature (°C),relative humidity of the measurement (%),span deviation,mass concentration of particles derived from Lorenz-Mie calculation of OPC scattering (μg/m³),mass concentration of particles derived from Lorenz-Mie calculation of OPC scattering (μg/m³),mass concentration of particles derived from Lorenz-Mie calculation of OPC scattering (μg/m³)
DateTimeUTC,F1_M11,P_M11,Q1_M11,Q2_M11,T1_M11,T2_M11,T3_M11,T4_M11,T5_M11,U1_M11,ZSPAN_M11,X0_M11,X2_M11,X1_M11
2024-03-26 20:00:00,SystemResetWarning,0820.8,5.01,000.00,020.9,020.5,000.0,029.3,022.7,14.6,0000.1,0015.87,0012.46,0012.04
2024-03-26 20:01:00,SystemResetWarning,0820.8,5.00,000.00,020.9,020.5,000.0,029.3,022.7,14.2,0000.3,0015.96,0012.53,0012.11
2024-03-26 20:02:00,SystemResetWarning,0820.8,5.00,000.00,020.9,020.5,000.0,029.3,022.7,14.5,0000.7,0016.17,0012.60,0012.18
2024-03-26 20:03:00,SystemResetWarning,0820.8,5.00,000.00,020.9,020.5,000.0,029.3,022.8,14.5,0001.3,0016.23,0012.72,0012.29
2024-03-26 20:04:00,SystemResetWarning,0820.8,5.00,000.00,020.9,020.5,000.0,029.3,022.8,14.3,0001.5,0016.67,0012.86,0012.39
2024-03-26 20:05:00,SystemResetWarning,0820.8,4.99,000.00,021.0,020.5,000.0,029.3,022.8,14.4,0001.6,0017.14,0012.94,0012.46
2024-03-26 20:06:00,SystemResetWarning,0820.8,4.99,000.00,021.0,020.5,000.0,029.3,022.8,14.7,0001.6,0017.23,0013.01,0012.53
2024-03-26 20:07:00,SystemResetWarning,0820.8,5.00,000.00,021.0,020.5,000.0,029.3,022.8,14.9,0001.3,0017.28,0013.12,0012.64
2024-03-26 20:08:00,SystemResetWarning,0820.8,5.01,000.00,021.0,020.5,000.0,029.3,022.8,15.0,0001.2,0017.92,0013.21,0012.75
2024-03-26 20:09:00,SystemResetWarning,0820.8,5.01,000.00,021.0,020.5,000.0,029.4,022.8,15.1,0001.5,0018.12,0013.25,0012.83
2024-03-26 20:10:00,SystemResetWarning,0820.8,4.99,000.00,021.0,020.5,000.0,029.4,022.8,15.0,0002.0,0018.22,0013.37,0012.94
2024-03-26 20:11:00,SystemResetWarning,0820.8,5.00,000.00,021.0,020.4,000.0,029.4,022.8,15.1,0002.2,0018.72,0013.51,0013.09
2024-03-26 20:12:00,SystemResetWarning,0820.8,5.00,000.00,021.0,020.4,000.0,029.4,022.8,15.0,0002.1,0018.94,0013.61,0013.21
2024-03-26 20:13:00,SystemResetWarning,0820.8,5.00,000.00,021.0,020.4,000.0,029.4,022.8,15.2,0001.9,0018.88,0013.74,0013.35
2024-03-26 20:14:00,SystemResetWarning,0820.8,4.99,000.00,021.0,020.4,000.0,029.4,022.8,15.2,0001.8,0019.11,0013.83,0013.46
2024-03-26 20:15:00,SystemResetWarning,0820.8,5.01,000.00,021.0,020.4,000.0,029.4,022.8,15.2,0002.1,0019.00,0013.92,0013.58
2024-03-26 20:16:00,SystemResetWarning,0820.8,5.01,000.00,021.0,020.4,000.0,029.4,022.8,15.3,0002.2,0019.36,0014.05,0013.71
2024-03-26 20:17:00,SystemResetWarning,0820.8,4.99,000.00,021.0,020.5,000.0,029.4,022.8,15.3,0002.0,0019.43,0014.13,0013.80
2024-03-26 20:18:00,SystemResetWarning,0820.8,4.98,000.00,021.0,020.5,000.0,029.4,022.8,15.5,0002.1,0019.19,0014.15,0013.83
2024-03-26 20:19:00,SystemResetWarning,0820.8,5.00,000.00,021.0,020.5,000.0,029.4,022.8,15.3,0002.1,0018.42,0014.14,0013.84
2024-03-26 20:20:00,SystemResetWarning,0820.8,5.00,000.00,021.0,020.5,000.0,029.4,022.8,15.4,0002.0,0017.97,0014.18,0013.88
2024-03-26 20:21:00,SystemResetWarning,0820.8,5.01,000.00,021.0,020.5,000.0,029.4,022.8,15.5,0001.7,0018.03,0014.24,0013.91
2024-03-26 20:22:00,SystemResetWarning,0820.7,5.01,000.00,021.0,020.5,000.0,029.5,022.8,15.2,0001.8,0017.51,0014.27,0013.92
2024-03-26 20:23:00,SystemResetWarning,0820.7,5.01,000.00,021.0,020.5,000.0,029.5,022.8,15.4,0002.0,0017.70,0014.32,0013.94
2024-03-26 20:24:00,SystemResetWarning,0820.7,5.00,000.00,021.0,020.5,000.0,029.5,022.8,15.2,0001.8,0018.23,0014.27,0013.88
2024-03-26 20:25:00,SystemResetWarning,0820.7,4.99,000.00,021.0,020.5,000.0,029.5,022.9,15.2,0001.5,0018.20,0014.24,0013.83
2024-03-26 20:26:00,SystemResetWarning,0820.7,5.00,000.00,021.1,020.5,000.0,029.5,022.9,15.1,0001.2,0018.40,0014.18,0013.76
2024-03-26 20:27:00,SystemResetWarning,0820.7,5.00,000.00,021.1,020.5,000.0,029.5,022.9,15.2,0001.1,0017.57,0014.14,0013.74
2024-03-26 20:28:00,SystemResetWarning,0820.7,5.00,000.00,021.1,020.5,000.0,029.5,022.9,15.1,0000.9,0017.60,0014.14,0013.72
2024-03-26 20:29:00,SystemResetWarning,0820.7,5.00,000.00,021.1,020.5,000.0,029.5,022.9,15.5,0001.0,0017.81,0014.15,0013.72
2024-03-26 20:30:00,SystemResetWarning,0820.7,5.00,000.00,021.1,020.5,000.0,029.5,022.9,15.8,0001.2,0018.04,0014.17,0013.71
2024-03-26 20:31:00,SystemResetWarning,0820.7,4.99,000.00,021.1,020.5,000.0,029.5,022.9,15.9,0001.1,0018.50,0014.13,0013.65
2024-03-26 20:32:00,SystemResetWarning,0820.8,5.00,000.00,021.1,020.4,000.0,029.5,022.8,15.5,0001.1,0018.82,0014.07,0013.60
2024-03-26 20:33:00,SystemResetWarning,0820.7,5.01,000.00,021.1,020.4,000.0,029.5,022.8,15.4,0001.0,0018.90,0014.01,0013.53
2024-03-26 20:34:00,SystemResetWarning,0820.7,5.01,000.00,021.0,020.4,000.0,029.5,022.8,15.4,0000.8,0018.84,0013.94,0013.45
2024-03-26 20:35:00,SystemResetWarning,0820.7,4.99,000.00,021.0,020.4,000.0,029.5,022.8,15.6,0001.1,0018.43,0013.97,0013.47
2024-03-26 20:36:00,SystemResetWarning,0820.7,4.99,000.00,021.0,020.4,000.0,029.5,022.8,16.2,0001.2,0018.27,0013.97,0013.48
2024-03-26 20:37:00,SystemResetWarning,0820.7,4.99,000.00,021.0,020.4,000.0,029.5,022.8,15.8,0001.1,0018.09,0014.01,0013.51
2024-03-26 20:38:00,SystemResetWarning,0820.7,4.99,000.00,021.0,020.4,000.0,029.5,022.8,15.7,0001.1,0018.06,0014.00,0013.52
2024-03-26 20:39:00,SystemResetWarning,0820.7,5.00,000.00,021.0,020.3,000.0,029.5,022.8,15.5,0001.3,0018.01,0014.03,0013.55
2024-03-26 20:40:00,SystemResetWarning,0820.7,5.00,000.00,021.0,020.3,000.0,029.5,022.8,15.4,0001.2,0017.88,0014.10,0013.61
2024-03-26 20:41:00,SystemResetWarning,0820.7,5.01,000.00,021.0,020.3,000.0,029.5,022.8,15.4,0001.0,0017.72,0014.18,0013.70
2024-03-26 20:42:00,SystemResetWarning,0820.7,5.01,000.00,021.0,020.3,000.0,029.5,022.8,15.5,0000.9,0017.35,0014.25,0013.79
2024-03-26 20:43:00,SystemResetWarning,0820.7,5.00,000.00,021.0,020.3,000.0,029.5,022.8,15.2,0000.9,0016.79,0014.25,0013.82
2024-03-26 20:44:00,SystemResetWarning,0820.7,4.99,000.00,021.0,020.3,000.0,029.5,022.8,15.3,0000.7,0016.63,0014.27,0013.87
2024-03-26 20:45:00,SystemResetWarning,0820.7,4.99,000.00,021.0,020.3,000.0,029.5,022.8,15.3,0000.8,0016.53,0014.33,0013.94
2024-03-26 20:46:00,SystemResetWarning,0820.7,5.01,000.00,021.0,020.3,000.0,029.5,022.8,15.3,0000.6,0017.10,0014.39,0014.00
2024-03-26 20:47:00,SystemResetWarning,0820.7,5.01,000.00,021.0,020.4,000.0,029.5,022.8,15.3,0000.7,0017.64,0014.46,0014.04
2024-03-26 20:48:00,SystemResetWarning,0820.7,5.00,000.00,021.0,020.3,000.0,029.5,022.8,15.3,0000.8,0017.63,0014.45,0014.04
2024-03-26 20:49:00,SystemResetWarning,0820.7,4.99,000.00,021.0,020.4,000.0,029.5,022.8,15.2,0000.7,0017.70,0014.45,0014.03
2024-03-26 20:50:00,SystemResetWarning,0820.6,4.99,000.00,021.0,020.4,000.0,029.5,022.8,15.2,0000.7,0017.64,0014.41,0014.00
2024-03-26 20:51:00,SystemResetWarning,0820.7,5.00,000.00,021.0,020.4,000.0,029.5,022.8,15.2,0000.7,0017.65,0014.33,0013.92
2024-03-26 20:52:00,SystemResetWarning,0820.6,5.01,000.00,021.0,020.4,000.0,029.5,022.8,15.2,0000.7,0018.28,0014.20,0013.82
2024-03-26 20:53:00,SystemResetWarning,0820.7,5.00,000.00,021.0,020.4,000.0,029.5,022.8,15.4,0001.0,0018.19,0014.07,0013.72
2024-03-26 20:54:00,SystemResetWarning,0820.6,5.00,000.00,021.0,020.4,000.0,029.5,022.8,15.4,0001.2,0018.37,0014.00,0013.64
2024-03-26 20:55:00,SystemResetWarning,0820.7,5.00,000.00,021.0,020.4,000.0,029.5,022.8,15.3,0001.1,0018.50,0013.97,0013.59
2024-03-26 20:56:00,SystemResetWarning,0820.7,5.00,000.00,021.0,020.4,000.0,029.5,022.8,15.4,0001.1,0018.52,0013.92,0013.52
2024-03-26 20:57:00,SystemResetWarning,0820.7,4.99,000.00,021.0,020.4,000.0,029.5,022.8,15.4,0001.1,0018.22,0013.84,0013.46
2024-03-26 20:58:00,SystemResetWarning,0820.7,5.00,000.00,021.0,020.4,000.0,029.5,022.8,15.4,0000.9,0017.25,0013.80,0013.41
2024-03-26 20:59:00,SystemResetWarning,0820.7,4.99,000.00,021.0,020.3,000.0,029.5,022.8,15.4,0000.4,0017.34,0013.72,0013.35
